Erwin, NC

12:02 PM EDT on May 27, 2018 (GMT -0400)
Harnett County

Weather History for KHRJ - January, 2014

Change the Weather History Date:

Tuesday, January 7, 2014

  Actual Average Record
Temperature  
Mean Temperature 20 °F -  
Max Temperature 27 °F 51 °F 71 °F (2008)
Min Temperature 12 °F 33 °F 12 °F (2014)
Degree Days  
Heating Degree Days 46    
Moisture  
Dew Point -3 °F    
Average Humidity 38    
Maximum Humidity 64    
Minimum Humidity 22    
Precipitation  
Precipitation 0.00 in - - ()
Sea Level Pressure  
Sea Level Pressure 30.43 in    
Wind  
Wind Speed 6 mph (WSW)    
Max Wind Speed 13 mph    
Max Gust Speed 18 mph    
Visibility 10 miles    
Events      
Averages and records for this station are not official NWS values.
T = Trace of Precipitation, MM = Missing Value Source: NWS Daily Summary

Daily Weather History Graph

Daily Weather History Graph

Search for Another Location

Airport or City:

Astronomy

Jan. 07, 2014 Rise Set
Actual Time 7:24 AM EST 5:18 PM EST
Civil Twilight 6:56 AM EST 5:46 PM EST
Nautical Twilight 6:24 AM EST 6:17 PM EST
Astronomical Twilight 5:54 AM EST 6:48 PM EST
Moon 11:28 AM EST (1/7) No Moon Set
Length of Visible Light 10h 49m
Length of Day
9h 53m
Waxing Crescent, 45% of the Moon is Illuminated
Jan 7
Waxing Crescent
Jan 7
First Quarter
Jan 15
Full
Jan 24
Last Quarter
Jan 30
New

Hourly Weather History & Observations

Time (EST) Temp. Windchill Dew Point Humidity Pressure Visibility Wind Dir Wind Speed Gust Speed Precip Events Conditions
12:15 AM 21.0 °F 11.4 °F -2.6 °F 36% 30.20 in 10.0 mi SW 8.1 mph 18.4 mph N/A   Clear
12:35 AM 20.3 °F 9.0 °F -3.1 °F 36% 30.22 in 10.0 mi SW 10.4 mph 16.1 mph N/A   Clear
12:55 AM 19.6 °F 8.9 °F -3.1 °F 37% 30.23 in 10.0 mi SW 9.2 mph 17.3 mph N/A   Clear
1:15 AM 19.0 °F 8.2 °F -4.2 °F 36% 30.24 in 10.0 mi SW 9.2 mph 18.4 mph N/A   Clear
1:35 AM 18.5 °F 6.8 °F -4.5 °F 36% 30.25 in 10.0 mi SW 10.4 mph 17.3 mph N/A   Clear
1:55 AM 18.1 °F 7.1 °F -4.4 °F 37% 30.26 in 10.0 mi SW 9.2 mph - N/A   Clear
2:15 AM 17.6 °F 4.3 °F -4.2 °F 38% 30.27 in 10.0 mi SW 12.7 mph 16.1 mph N/A   Clear
2:35 AM 17.2 °F 7.8 °F -3.8 °F 39% 30.29 in 10.0 mi SW 6.9 mph - N/A   Clear
2:55 AM 16.7 °F 7.2 °F -4.0 °F 40% 30.31 in 10.0 mi SW 6.9 mph - N/A   Clear
3:15 AM 16.5 °F 4.3 °F -3.3 °F 42% 30.32 in 10.0 mi WSW 10.4 mph - N/A   Clear
3:35 AM 16.2 °F 5.5 °F -3.3 °F 42% 30.34 in 10.0 mi SW 8.1 mph - N/A   Clear
3:55 AM 15.8 °F 5.1 °F -4.2 °F 41% 30.35 in 10.0 mi SW 8.1 mph 17.3 mph N/A   Clear
4:15 AM 15.6 °F 5.9 °F -3.6 °F 42% 30.36 in 10.0 mi SW 6.9 mph - N/A   Clear
4:35 AM 15.3 °F 5.4 °F -3.1 °F 44% 30.36 in 10.0 mi WSW 6.9 mph - N/A   Clear
4:55 AM 14.9 °F 6.1 °F -3.8 °F 43% 30.37 in 10.0 mi WSW 5.8 mph - N/A   Clear
5:15 AM 14.5 °F 5.7 °F -4.4 °F 43% 30.38 in 10.0 mi WSW 5.8 mph 16.1 mph N/A   Clear
5:35 AM 14.2 °F 5.3 °F -4.2 °F 44% 30.39 in 10.0 mi WSW 5.8 mph - N/A   Clear
5:55 AM 14.0 °F 8.2 °F -2.9 °F 47% 30.41 in 10.0 mi WSW 3.5 mph - N/A   Clear
6:15 AM 13.8 °F 8.0 °F -3.5 °F 46% 30.42 in 10.0 mi SW 3.5 mph - N/A   Clear
6:35 AM 13.5 °F 4.4 °F -2.0 °F 50% 30.42 in 10.0 mi SW 5.8 mph - N/A   Clear
6:55 AM 13.1 °F - -1.7 °F 52% 30.42 in 10.0 mi Calm Calm - N/A   Clear
7:15 AM 12.9 °F 5.2 °F -3.3 °F 49% 30.42 in 10.0 mi SW 4.6 mph - N/A   Clear
7:35 AM 12.9 °F 6.9 °F -3.6 °F 48% 30.42 in 10.0 mi SW 3.5 mph - N/A   Clear
7:55 AM 13.1 °F 7.1 °F -4.0 °F 47% 30.42 in 10.0 mi SW 3.5 mph - N/A   Clear
8:15 AM 13.8 °F - -4.7 °F 44% 30.45 in 10.0 mi Calm Calm - N/A   Clear
8:35 AM 14.2 °F 8.4 °F -6.0 °F 41% 30.46 in 10.0 mi WSW 3.5 mph - N/A   Clear
8:55 AM 14.7 °F 4.8 °F -7.1 °F 38% 30.47 in 10.0 mi WSW 6.9 mph - N/A   Clear
9:15 AM 15.8 °F 4.2 °F -7.8 °F 35% 30.49 in 10.0 mi SW 9.2 mph - N/A   Clear
9:35 AM 16.7 °F 7.2 °F -7.1 °F 35% 30.50 in 10.0 mi WSW 6.9 mph - N/A   Clear
9:55 AM 17.8 °F 8.5 °F -7.4 °F 32% 30.51 in 10.0 mi SW 6.9 mph - N/A   Clear
10:15 AM 18.1 °F 7.9 °F -8.3 °F 31% 30.51 in 10.0 mi SW 8.1 mph 16.1 mph N/A   Clear
10:35 AM 19.2 °F 9.3 °F -7.6 °F 30% 30.50 in 10.0 mi WSW 8.1 mph 18.4 mph N/A   Clear
10:55 AM 19.6 °F 9.7 °F -7.4 °F 30% 30.49 in 10.0 mi WSW 8.1 mph 16.1 mph N/A   Clear
11:15 AM 19.9 °F 10.1 °F -7.4 °F 30% 30.48 in 10.0 mi SW 8.1 mph - N/A   Clear
11:35 AM 20.5 °F 12.8 °F -7.4 °F 29% 30.47 in 10.0 mi WSW 5.8 mph - N/A   Clear
11:55 AM 21.9 °F 12.5 °F -6.9 °F 28% 30.45 in 10.0 mi NW 8.1 mph - N/A   Clear
12:15 PM 22.1 °F 15.9 °F -7.1 °F 28% 30.44 in 10.0 mi NNW 4.6 mph - N/A   Clear
12:35 PM 23.2 °F 16.0 °F -6.7 °F 27% 30.43 in 10.0 mi West 5.8 mph - N/A   Clear
12:55 PM 23.5 °F 16.4 °F -6.0 °F 27% 30.42 in 10.0 mi NW 5.8 mph - N/A   Clear
1:15 PM 23.7 °F 16.6 °F -6.5 °F 26% 30.42 in 10.0 mi NNW 5.8 mph - N/A   Clear
1:35 PM 24.6 °F 17.7 °F -6.7 °F 25% 30.41 in 10.0 mi NW 5.8 mph - N/A   Clear
1:55 PM 24.8 °F 16.9 °F -6.9 °F 25% 30.41 in 10.0 mi West 6.9 mph - N/A   Clear
2:15 PM 25.7 °F 19.0 °F -6.2 °F 25% 30.41 in 10.0 mi West 5.8 mph - N/A   Clear
2:35 PM 26.4 °F 19.8 °F -6.0 °F 24% 30.42 in 10.0 mi WNW 5.8 mph - N/A   Clear
2:55 PM 26.6 °F 21.2 °F -6.0 °F 24% 30.41 in 10.0 mi NW 4.6 mph - N/A   Clear
3:15 PM 27.3 °F 22.0 °F -6.0 °F 23% 30.41 in 10.0 mi West 4.6 mph - N/A   Clear
3:35 PM 27.1 °F 21.8 °F -7.1 °F 22% 30.42 in 10.0 mi West 4.6 mph - N/A   Clear
3:55 PM 27.3 °F 20.9 °F -6.0 °F 23% 30.43 in 10.0 mi WSW 5.8 mph - N/A   Clear
4:15 PM 27.1 °F 20.7 °F -6.2 °F 23% 30.43 in 10.0 mi South 5.8 mph - N/A   Clear
4:35 PM 26.4 °F - -5.1 °F 25% 30.44 in 10.0 mi Calm Calm - N/A   Clear
4:55 PM 26.1 °F 20.5 °F -4.5 °F 26% 30.45 in 10.0 mi SW 4.6 mph - N/A   Clear
5:15 PM 25.5 °F - -4.7 °F 27% 30.45 in 10.0 mi Calm Calm - N/A   Clear
5:35 PM 25.2 °F - -1.8 °F 31% 30.45 in 10.0 mi Calm Calm - N/A   Clear
5:55 PM 24.8 °F - -1.7 °F 32% 30.46 in 10.0 mi Calm Calm - N/A   Clear
6:15 PM 24.6 °F - -3.6 °F 29% 30.47 in 10.0 mi Calm Calm - N/A   Clear
6:35 PM 24.8 °F - -3.8 °F 29% 30.48 in 10.0 mi Calm Calm - N/A   Clear
6:55 PM 24.6 °F - -2.9 °F 30% 30.49 in 10.0 mi Calm Calm - N/A   Clear
7:15 PM 24.4 °F - -1.8 °F 32% 30.50 in 10.0 mi Calm Calm - N/A   Clear
7:35 PM 23.9 °F - 2.7 °F 40% 30.50 in 10.0 mi Calm Calm - N/A   Clear
7:55 PM 23.2 °F - 7.3 °F 51% 30.50 in 10.0 mi Calm Calm - N/A   Clear
8:15 PM 23.0 °F - 8.6 °F 54% 30.50 in 10.0 mi Calm Calm - N/A   Clear
8:35 PM 23.0 °F - 8.2 °F 53% 30.51 in 10.0 mi Calm Calm - N/A   Clear
8:55 PM 22.1 °F - 9.1 °F 58% 30.51 in 10.0 mi Calm Calm - N/A   Clear
9:15 PM 21.2 °F - 9.5 °F 61% 30.51 in 10.0 mi Calm Calm - N/A   Clear
9:35 PM 21.2 °F 16.4 °F 8.6 °F 58% 30.52 in 10.0 mi South 3.5 mph - N/A   Clear
9:55 PM 21.4 °F - 8.8 °F 58% 30.53 in 10.0 mi Calm Calm - N/A   Clear
10:15 PM 23.0 °F - 4.3 °F 45% 30.53 in 10.0 mi Calm Calm - N/A   Clear
10:35 PM 22.6 °F 18.0 °F 3.4 °F 44% 30.53 in 10.0 mi WSW 3.5 mph - N/A   Clear
10:55 PM 22.5 °F - 2.8 °F 43% 30.52 in 10.0 mi Calm Calm - N/A   Clear
11:15 PM 22.1 °F - 4.3 °F 46% 30.52 in 10.0 mi Calm Calm - N/A   Clear
11:35 PM 21.6 °F - 7.3 °F 54% 30.52 in 10.0 mi Calm Calm - N/A   Clear
11:55 PM 19.8 °F 14.7 °F 9.5 °F 64% 30.51 in 10.0 mi South 3.5 mph - N/A   Clear